Starlink 4049

operational
NORAD ID: 52840 Int'l Des: 2022-062 Owner: SPXS Country: US Constellation: starlink
LEOCIRCULAR

Über Starlink 4049

Beschreibung wird geladen...

Live-Position

3D-Globus wird geladen...

Nächste Überflüge

Höhenverlauf

Altitude vs Time

uPlot chart will show altitude changes over time

Zweizeiliger Elementsatz

1 52840U 22062L 25351.15243562 .00007044 00000-0 46004-3 0 9997
2 52840 53.2175 44.7630 0001457 80.0775 280.0381 15.08857079193322
Epoch: 17. Dez. 2025 • Age: 11 hours

Aktueller Status

Höhe 550.0 km
Geschwindigkeit 7.59 km/s
Subsatellitenpunkt -31.61°S, 69.9°E
Startdatum 17. Juni 2022
Alter 3.4 years
Typ internet

Technische Details

Klassifizierung Payload
Masse 297.00 kg
Trockenmasse 275.00 kg
Gesamtmasse 297.00 kg
Länge 0.20 m
Durchmesser 2.80 m
Spannweite 9.00 m
Form Box + pan
Hersteller SPXS
Bus-Typ Starlink
Phasenstatus In Orbit
Besitzer/Staat SPXS/US

Große Konstellationen

Loading constellations...